Location: Saint-Palais-sur-Mer
(45.6429°N, 1.0859°W)
Time: 09:25:45
(UTC+01:00)

Injun/Solrad 3 - All Passes

Search period start: 15 February 2026 00:00
Search period end: 25 February 2026 00:00
Orbit: 873 x 983 km, 66.8° (Epoch: 13 February)

Date Brightness Start Highest point End Pass type
(mag) Time Alt. Az. Time Alt. Az. Time Alt. Az.
15 Feb - 11:32:16 10° SE 11:36:03 18° ESE 11:39:51 10° ENE daylight
15 Feb - 13:15:55 10° SW 13:21:46 79° WNW 13:27:44 10° NNE daylight
15 Feb - 15:04:56 10° W 15:09:13 20° NW 15:13:36 10° NNE daylight
15 Feb - 18:45:12 10° N 18:47:55 13° NNE 18:50:40 10° NE daylight
15 Feb - 20:30:35 10° NNW 20:36:15 38° NE 20:42:03 10° ESE visible
15 Feb - 22:17:01 10° NW 22:22:54 48° WSW 22:28:55 10° S visible
16 Feb - 11:41:57 10° SSE 11:46:46 28° ESE 11:51:40 10° NE daylight
16 Feb - 13:27:09 10° SW 13:32:52 55° NW 13:38:43 10° NNE daylight
16 Feb - 15:17:11 10° WNW 15:20:45 16° NNW 15:24:23 10° N daylight
16 Feb - 18:55:54 10° N 18:59:33 16° NNE 19:03:14 10° ENE visible
16 Feb - 20:41:30 10° NNW 20:47:29 52° NE 20:53:37 10° SE visible
16 Feb - 22:28:21 10° NW 22:33:46 33° WSW 22:39:16 10° S visible
17 Feb - 11:52:09 10° S 11:57:34 42° ESE 12:03:06 10° NE daylight
17 Feb - 13:38:37 10° WSW 13:44:04 39° NW 13:49:40 10° NNE daylight
17 Feb - 15:29:40 10° NW 15:32:22 13° NNW 15:35:06 10° N daylight
17 Feb - 19:06:39 10° NNW 19:11:05 20° NNE 19:15:34 10° E visible
17 Feb - 20:52:27 10° NNW 20:58:38 73° NE 21:04:56 10° SE visible
17 Feb - 22:39:57 10° WNW 22:44:32 22° WSW 22:49:12 10° SSW visible
18 Feb - 12:02:44 10° SSW 12:08:28 63° ESE 12:14:20 10° NE daylight
18 Feb - 13:50:20 10° W 13:55:23 29° NW 14:00:33 10° NNE daylight
18 Feb - 15:42:25 10° NNW 15:44:03 11° NNW 15:45:41 10° N daylight
18 Feb - 17:32:33 10° N 17:33:41 10° NNE 17:34:49 10° NNE daylight
18 Feb - 19:17:28 10° NNW 19:22:32 26° NE 19:27:40 10° E visible
18 Feb - 21:03:30 10° NW 21:09:40 80° WSW 21:16:00 10° SSE visible
18 Feb - 22:52:09 10° WNW 22:55:14 14° WSW 22:58:21 10° SW visible
19 Feb - 10:30:35 10° SE 10:33:51 15° ESE 10:37:09 10° ENE daylight
19 Feb - 12:13:36 10° SSW 12:19:27 89° WNW 12:25:26 10° NNE daylight
19 Feb - 14:02:16 10° W 14:06:46 22° NW 14:11:23 10° NNE daylight
19 Feb - 17:42:59 10° N 17:45:24 12° NNE 17:47:50 10° NE daylight
19 Feb - 19:28:19 10° NNW 19:33:53 34° NE 19:39:32 10° ESE visible
19 Feb - 21:14:38 10° NW 21:20:39 55° WSW 21:26:47 10° SSE visible
20 Feb - 10:40:01 10° SSE 10:44:33 24° ESE 10:49:10 10° NE daylight
20 Feb - 12:24:45 10° SW 12:30:32 62° NW 12:36:28 10° NNE daylight
20 Feb - 14:14:26 10° WNW 14:18:17 17° NNW 14:22:11 10° N daylight
20 Feb - 17:53:40 10° N 17:57:03 15° NNE 18:00:29 10° ENE daylight
20 Feb - 19:39:12 10° NNW 19:45:08 47° NE 19:51:11 10° ESE visible
20 Feb - 21:25:55 10° NW 21:31:32 37° WSW 21:37:16 10° S visible
21 Feb - 10:50:04 10° S 10:55:20 36° ESE 11:00:41 10° NE daylight
21 Feb - 12:36:08 10° WSW 12:41:41 44° NW 12:47:25 10° NNE daylight
21 Feb - 14:26:50 10° NW 14:29:52 14° NNW 14:32:56 10° N daylight
21 Feb - 18:04:25 10° NNW 18:08:37 19° NNE 18:12:53 10° ENE daylight
21 Feb - 19:50:10 10° NNW 19:56:18 66° NE 20:02:35 10° SE visible
21 Feb - 21:37:25 10° NW 21:42:21 25° WSW 21:47:21 10° SSW visible
22 Feb - 11:00:32 10° SSW 11:06:11 55° ESE 11:11:59 10° NE daylight
22 Feb - 12:47:46 10° WSW 12:52:58 32° NW 12:58:18 10° NNE daylight
22 Feb - 14:39:29 10° NW 14:41:32 12° NNW 14:43:35 10° N daylight
22 Feb - 16:30:37 10° N 16:31:09 10° N 16:31:42 10° NNE daylight
22 Feb - 18:15:14 10° NNW 18:20:07 24° NE 18:25:04 10° E daylight
22 Feb - 20:01:10 10° NNW 20:07:24 89° SW 20:13:44 10° SSE visible
22 Feb - 21:49:20 10° WNW 21:53:04 17° WSW 21:56:50 10° SW visible
23 Feb - 09:29:04 10° SE 09:31:41 13° ESE 09:34:18 10° ENE daylight
23 Feb - 11:11:19 10° SSW 11:17:09 81° ESE 11:23:08 10° NE daylight
23 Feb - 12:59:37 10° W 13:04:21 24° NW 13:09:10 10° NNE daylight
23 Feb - 14:52:42 10° NNW 14:53:15 10° N 14:53:50 10° N daylight
23 Feb - 16:40:48 10° N 16:42:53 12° NNE 16:44:59 10° NE daylight
23 Feb - 18:26:04 10° NNW 18:31:29 31° NE 18:37:01 10° ESE daylight
23 Feb - 20:12:17 10° NW 20:18:23 62° WSW 20:24:37 10° SSE visible
24 Feb - 09:38:07 10° SSE 09:42:21 21° ESE 09:46:37 10° ENE daylight
24 Feb - 11:22:22 10° SW 11:28:12 70° NW 11:34:10 10° NNE daylight
24 Feb - 13:11:43 10° WNW 13:15:48 19° NNW 13:19:59 10° NNE daylight
24 Feb - 16:51:27 10° N 16:54:34 14° NNE 16:57:42 10° NE daylight
24 Feb - 18:36:57 10° NNW 18:42:47 42° NE 18:48:44 10° ESE daylight
24 Feb - 20:23:30 10° NW 20:29:17 42° WSW 20:35:12 10° S visible
